[[{"header":{"parameterUnit":"m.s-1","parameterCategory":1,"la1":30.2991,"la2":30.254,"lo1":-89.0895,"lo2":-89.0444,"dy":0.0017,"dx":0.0017,"nx":28,"ny":28,"refTime":"2023-04-02T21:00:00:Z","depth":0,"parameterNumber":2,"parameterNumberName":"U-component_of_WINDS"},"data":[0,0,0,0,0,0,0,0,0,0,0,0,0,0,0,0,0,0,0,0,0,0,0,0,0,0,0,0,0,0,0,0,0,0,0,0,0,0,0,0,0,0,0,0,0,0,0,0,0,0,0,0,0,0,0,0,0,0,2.3815,2.3816,0,2.3845,2.3846,2.3846,2.3829,2.3828,2.3828,2.3827,2.3857,2.3858,2.386,0,0,0,0,0,0,0,0,0,0,0,0,0,2.3744,2.3745,2.3815,2.3816,2.3816,2.3845,2.3846,2.3846,2.3829,2.3828,2.3827,2.3826,2.3856,2.3858,2.386,0,0,0,0,0,0,0,0,0,0,0,0,0,2.3774,2.3745,2.3815,2.3811,2.3811,2.3845,2.3846,2.3846,2.383,2.3828,2.3827,2.3826,2.3856,2.3858,2.386,2.39,0,0,2.3868,2.3869,0,0,0,0,0,0,0,0,2.3772,2.3777,2.3811,2.3812,2.3812,2.3832,2.3831,2.3864,2.383,2.3823,2.3827,2.3825,2.385,2.3852,2.3861,2.3901,2.3902,2.3868,2.3869,2.387,2.3871,0,0,0,0,0,0,0,2.377,2.3775,2.3827,2.3812,2.3812,2.3808,2.3811,2.3837,2.3843,2.3823,2.3822,2.3826,2.3849,2.3858,2.3861,2.3903,2.3868,2.387,2.3871,2.3872,2.3978,2.3979,0,0,0,0,0,0,2.3769,2.3774,2.3826,2.3828,2.3789,2.381,2.3814,2.3827,2.3842,2.3844,2.3827,2.3825,2.3855,2.3859,2.3862,2.391,2.387,2.3872,2.3874,2.3976,2.3978,2.398,0,0,0,0,0,0,2.3767,2.3773,2.3825,2.3801,2.3807,2.3813,2.3828,2.3828,2.3837,2.3845,2.3846,2.3835,2.3854,2.3859,2.3891,2.3911,2.3873,2.3876,2.3975,2.3977,2.3979,2.4005,0,0,0,0,0,0,2.3765,2.3773,2.3788,2.3801,2.3808,2.3853,2.3829,2.383,2.3841,2.3839,2.3853,2.3854,2.3854,2.3887,2.3893,2.3913,2.3877,2.3973,2.3976,2.3978,2.4002,2.4007,2.4012,0,0,0,0,0,2.3763,2.3793,2.3789,2.3795,2.3827,2.3854,2.3858,2.3857,2.3843,2.3858,2.3863,2.3854,2.3908,2.3891,2.3897,2.3918,2.3972,2.3975,2.3978,2.4,2.4006,2.4012,0,0,0,0,0,0,2.3782,2.3795,2.379,2.3826,2.3839,2.3851,2.387,2.3864,2.3881,2.3878,2.3876,2.3879,2.3912,2.3918,2.3899,2.3957,2.3937,2.3942,2.3952,2.3958,2.3963,2.3961,2.3879,0,0,0,0,0,2.379,2.3811,2.3822,2.3853,2.386,2.3864,2.3876,2.3874,2.3887,2.3892,2.39,2.3913,2.3933,2.3946,2.3965,2.4003,2.4006,2.4021,2.4026,2.403,2.4034,2.4055,2.4062,2.399,2.399,2.399,0,0,2.3808,2.3818,2.3831,2.3857,2.3867,2.3889,2.3868,2.3892,2.3908,2.3896,2.3926,2.3933,2.3947,2.3983,2.3999,2.3989,2.4054,2.4034,2.4037,2.4039,2.4059,2.4066,2.4072,2.3992,2.3992,2.3991,0,0,2.3851,2.3861,2.3888,2.3898,2.3914,2.3917,2.3923,2.3937,2.3941,2.3972,2.3963,2.3982,2.4016,2.4027,2.4037,2.4086,2.4078,2.4092,2.4118,2.4139,2.4144,2.4149,2.4167,2.4173,2.4096,2.4096,2.4096,0,2.387,2.3903,2.3902,2.3927,2.3939,2.3929,2.3957,2.3967,2.3988,2.3997,2.3985,2.4029,2.4038,2.4076,2.4088,2.4097,2.4104,2.409,2.4144,2.4149,2.4153,2.417,2.4177,2.4098,2.4098,2.4098,2.4098,0,2.3927,2.395,2.397,2.3991,2.4005,2.4031,2.4034,2.4049,2.4046,2.405,2.4082,2.4093,2.4114,2.4123,2.412,2.4161,2.4155,2.4144,2.4124,2.4162,2.4178,2.4184,2.41,2.41,2.4099,2.4099,0,0,2.3981,2.4003,2.401,2.402,2.4037,2.4055,2.4081,2.4102,2.4115,2.413,2.4152,2.4181,2.4172,2.4183,2.4182,2.42,2.4239,2.4187,2.4187,2.4196,2.4285,2.4292,2.43,2.4234,2.4235,2.4236,2.4283,0,2.4025,2.4071,2.4072,2.4114,2.4135,2.4128,2.415,2.4163,2.4168,2.4187,2.4192,2.4214,2.4199,2.4206,2.4224,2.423,2.4256,2.4227,2.4254,2.4255,2.425,2.4308,2.4316,2.436,2.4289,2.4291,2.4291,0,2.4083,2.4101,2.4145,2.416,2.4169,2.419,2.421,2.4228,2.4243,2.4245,2.4259,2.4255,2.4282,2.4261,2.4298,2.4278,2.4289,2.4294,2.4296,2.4298,2.4275,2.4311,2.4374,2.4381,2.4301,2.43,2.4299,0,2.4118,2.4153,2.4185,2.4193,2.4212,2.4226,2.4235,2.4249,2.4262,2.4279,2.4288,2.4308,2.4319,2.4335,2.4337,2.4322,2.4374,2.4353,2.4376,2.4376,2.4387,2.4386,2.4452,2.4395,2.4395,2.4395,2.4395,0,2.4167,2.4194,2.4201,2.422,2.4251,2.4252,2.4282,2.4289,2.4302,2.4322,2.4317,2.4336,2.4338,2.4357,2.4359,2.4389,2.4395,2.4397,2.4397,2.4397,2.4397,2.4404,2.4401,2.4396,2.4396,2.4396,2.4395,0,2.4211,2.4217,2.425,2.4266,2.427,2.4292,2.4305,2.4324,2.4329,2.4355,2.4361,2.4368,2.4392,2.4395,2.4422,2.4424,2.446,2.4457,2.4455,2.4454,2.4477,2.4475,2.4549,2.4559,2.4496,2.4497,2.4497,0,2.4242,2.4263,2.4281,2.4295,2.4304,2.4326,2.434,2.4342,2.4356,2.4376,2.4392,2.4415,2.4433,2.4471,2.4478,2.4499,2.4496,2.4521,2.4499,2.4499,2.4497,2.4495,2.4497,2.4525,2.4526,2.4526,2.4527,0,2.4295,2.4298,2.4318,2.4339,2.4356,2.4373,2.4389,2.44,2.4404,2.4421,2.4445,2.4459,2.4488,2.451,2.4531,2.454,2.4534,2.4534,2.454,2.454,2.4538,2.454,2.4466,2.4532,2.4531,2.4531,2.4531,2.4531,2.4334,2.4352,2.4368,2.4391,2.4404,2.4419,2.4438,2.4446,2.4466,2.4489,2.449,2.4516,2.4531,2.4559,2.4569,2.459,2.4581,2.4591,2.4593,2.4595,2.4597,2.4536,2.4593,2.4593,2.4593,2.4593,2.4593,0,2.4387,2.4397,2.4419,2.4442,2.446,2.4454,2.4472,2.4487,2.4511,2.4526,2.4545,2.4573,2.4595,2.4605,2.4627,2.4642,2.464,2.4647,2.4646,2.4648,2.4603,2.4595,2.4649,2.4649,2.4649,2.4649,2.4649,2.4649,2.4417,2.4448,2.4453,2.4491,2.4501,2.4527,2.4538,2.4552,2.4564,2.4596,2.4615,2.4622,2.4635,2.4658,2.4678,2.4681,2.4689,2.4698,2.4699,2.4657,2.4651,2.4646,2.4638,2.47,2.47,2.4742,2.4742,2.4743]},{"header":{"parameterUnit":"m.s-1","parameterCategory":1,"la1":30.2991,"la2":30.254,"lo1":-89.0895,"lo2":-89.0444,"dy":0.0017,"dx":0.0017,"nx":28,"ny":28,"refTime":"2023-04-02T21:00:00:Z","depth":0,"parameterNumber":3,"parameterNumberName":"V-component_of_WINDS"},"data":[0,0,0,0,0,0,0,0,0,0,0,0,0,0,0,0,0,0,0,0,0,0,0,0,0,0,0,0,0,0,0,0,0,0,0,0,0,0,0,0,0,0,0,0,0,0,0,0,0,0,0,0,0,0,0,0,0,0,5.4393,5.4393,0,5.4386,5.4386,5.4386,5.4351,5.4351,5.435,5.4349,5.4339,5.4339,5.4339,0,0,0,0,0,0,0,0,0,0,0,0,0,5.4372,5.4373,5.4393,5.4393,5.4392,5.4386,5.4386,5.4386,5.4352,5.4351,5.435,5.4349,5.4338,5.4339,5.434,0,0,0,0,0,0,0,0,0,0,0,0,0,5.4375,5.4373,5.4393,5.4375,5.4373,5.4386,5.4386,5.4386,5.4352,5.4351,5.4349,5.4348,5.4338,5.4339,5.434,5.4369,0,0,5.4342,5.4342,0,0,0,0,0,0,0,0,5.4375,5.4376,5.4377,5.4376,5.4374,5.4369,5.4375,5.438,5.4352,5.436,5.4349,5.4348,5.4349,5.4349,5.435,5.4368,5.4368,5.4342,5.4342,5.4343,5.4343,0,0,0,0,0,0,0,5.4375,5.4376,5.439,5.4377,5.4375,5.4366,5.4365,5.4376,5.4361,5.4359,5.4356,5.4356,5.4348,5.435,5.435,5.4367,5.4342,5.4342,5.4343,5.4343,5.4411,5.4413,0,0,0,0,0,0,5.4378,5.4376,5.439,5.439,5.4372,5.4367,5.4366,5.4371,5.4361,5.4358,5.4357,5.4355,5.4349,5.4349,5.4349,5.4385,5.4343,5.4343,5.4344,5.441,5.4412,5.4413,0,0,0,0,0,0,5.4377,5.4379,5.439,5.4382,5.4383,5.4369,5.4375,5.4372,5.4374,5.436,5.4357,5.4362,5.4348,5.4348,5.4365,5.4384,5.4344,5.4344,5.4408,5.441,5.4412,5.4454,0,0,0,0,0,0,5.4377,5.4379,5.4391,5.4383,5.4384,5.4407,5.4376,5.4373,5.4376,5.4372,5.4364,5.4361,5.4347,5.4364,5.4366,5.4384,5.4345,5.4407,5.4409,5.4412,5.4451,5.4458,5.4463,0,0,0,0,0,5.4376,5.4401,5.4391,5.4393,5.4398,5.4408,5.4408,5.4393,5.4377,5.4388,5.438,5.4361,5.4381,5.4366,5.4368,5.4386,5.4405,5.4409,5.4412,5.4449,5.4456,5.4463,0,0,0,0,0,0,5.4409,5.44,5.4389,5.4412,5.4411,5.4402,5.4416,5.4402,5.4404,5.4401,5.4381,5.4379,5.4399,5.4394,5.4377,5.4415,5.439,5.4394,5.4418,5.4425,5.4431,5.4432,5.4345,0,0,0,0,0,5.4419,5.443,5.442,5.4442,5.4442,5.4429,5.4433,5.4422,5.442,5.4419,5.4412,5.441,5.4416,5.442,5.4424,5.445,5.4449,5.4464,5.447,5.4475,5.4478,5.4494,5.4501,5.4423,5.4423,5.4423,0,0,5.444,5.4436,5.4443,5.4448,5.4447,5.4458,5.4429,5.4441,5.4449,5.442,5.4437,5.4432,5.4428,5.445,5.4459,5.4446,5.45,5.4479,5.4483,5.4484,5.4498,5.4505,5.4512,5.4425,5.4425,5.4425,0,0,5.4484,5.4481,5.45,5.45,5.4499,5.449,5.4495,5.4489,5.4485,5.4501,5.4481,5.4489,5.4499,5.4499,5.45,5.4546,5.453,5.4548,5.4579,5.4594,5.46,5.4606,5.4624,5.4631,5.4551,5.4551,5.4551,0,5.4509,5.4526,5.4511,5.4526,5.4529,5.4506,5.4525,5.4525,5.4525,5.4527,5.4513,5.4528,5.4523,5.4546,5.4558,5.4559,5.4564,5.4549,5.4601,5.4606,5.4611,5.4628,5.4635,5.4554,5.4553,5.4553,5.4553,0,5.4559,5.4571,5.4586,5.4589,5.4594,5.4611,5.4598,5.4605,5.4594,5.4587,5.4605,5.4599,5.4604,5.4608,5.4596,5.463,5.4622,5.4605,5.4579,5.4621,5.4637,5.4643,5.4557,5.4556,5.4556,5.4555,0,0,5.4621,5.4619,5.4625,5.4627,5.4625,5.4634,5.465,5.4656,5.4663,5.4664,5.4677,5.4688,5.4673,5.4674,5.4662,5.4675,5.4715,5.4656,5.4656,5.4669,5.4754,5.4769,5.4776,5.4704,5.4705,5.4706,5.4755,0,5.4665,5.4694,5.4683,5.4712,5.4725,5.4704,5.4718,5.4718,5.4713,5.4721,5.4714,5.4723,5.4702,5.4703,5.4715,5.4708,5.4732,5.4704,5.4717,5.4717,5.472,5.4784,5.4799,5.4845,5.4761,5.4762,5.4763,0,5.4719,5.4726,5.4758,5.4757,5.4761,5.4774,5.4781,5.4789,5.4789,5.4784,5.4787,5.4773,5.4788,5.4763,5.4785,5.4766,5.4771,5.4768,5.477,5.4771,5.4744,5.4789,5.4859,5.4867,5.4772,5.4771,5.4771,0,5.4765,5.4781,5.4803,5.4805,5.4804,5.4814,5.4813,5.4813,5.4818,5.4823,5.4826,5.4832,5.4836,5.484,5.4828,5.481,5.4852,5.4825,5.4849,5.485,5.4859,5.4859,5.4933,5.486,5.486,5.486,5.486,0,5.4816,5.4837,5.4824,5.4838,5.4861,5.4847,5.487,5.4867,5.4867,5.4879,5.486,5.4872,5.4855,5.4865,5.4855,5.4876,5.4877,5.4874,5.4871,5.4876,5.4877,5.488,5.4877,5.4862,5.4861,5.4861,5.486,0,5.4871,5.4863,5.4886,5.4884,5.4884,5.4901,5.4899,5.4911,5.4905,5.4921,5.4924,5.4914,5.4926,5.4914,5.4923,5.4917,5.4946,5.4937,5.4946,5.4945,5.497,5.4968,5.5049,5.506,5.4978,5.4979,5.498,0,5.4904,5.492,5.4921,5.4929,5.4931,5.4943,5.495,5.4937,5.4944,5.4947,5.496,5.497,5.4977,5.4996,5.4989,5.4997,5.499,5.5018,5.4991,5.4997,5.4993,5.4993,5.4995,5.5024,5.5025,5.5025,5.5026,0,5.4965,5.4962,5.4972,5.4983,5.4992,5.4998,5.5003,5.5011,5.4998,5.5007,5.502,5.5026,5.5038,5.5048,5.5055,5.5053,5.5038,5.5035,5.5041,5.5047,5.5053,5.5052,5.4963,5.5033,5.5032,5.5032,5.5031,5.5031,5.5012,5.5026,5.503,5.5043,5.5046,5.5052,5.5065,5.5062,5.5073,5.5083,5.5074,5.509,5.5091,5.5098,5.5099,5.5111,5.5099,5.5107,5.511,5.5113,5.5118,5.505,5.5112,5.5111,5.5111,5.5111,5.5111,0,5.5074,5.5076,5.5088,5.5098,5.5109,5.5095,5.5101,5.5111,5.5125,5.5129,5.5138,5.5153,5.5164,5.5159,5.5169,5.5179,5.5173,5.5182,5.5182,5.5182,5.5126,5.5121,5.5188,5.5188,5.5188,5.5188,5.5188,5.5188,5.5107,5.5132,5.5129,5.5156,5.5157,5.5174,5.5179,5.5184,5.5188,5.5207,5.5217,5.5214,5.5214,5.5224,5.5234,5.5232,5.5237,5.5249,5.5245,5.5193,5.5186,5.5179,5.5174,5.525,5.525,5.53,5.5301,5.5301]}]]